Flag for Canada Weather past 2 weeks in Pictou County, Nova Scotia, Canada

Now
70 °F

Mild.


Feels Like: 70 °F
Forecast: 62 / 72 °F
Wind: 13 mph from Southwest

Location: Caribou Point

Current Time: Sep 22, 2014 at 9:15:34 AM

Latest Report: Sep 22, 2014 at 8:00 AM


Visibility: N/A

Pressure: 29.36 "Hg

Humidity: 95%

Dew point: 68 °F

Location of Pictou CountyLocation

Historic Weather in Pictou County — Graph

°F

Pictou County temperature yesterday

Maximum temperature yesterday: 77 °F (at 3:00 PM)
Minimum temperature yesterday: 54 °F (at 4:00 AM)
Average temperature yesterday: 65 °F

Past Weeks' High & Low Weather Summary

 TemperatureHumidityPressure
High77 °F (Sep 21, 3:00 PM)99% (Sep 14, 6:00 PM)30.49 "Hg (Sep 14, 6:00 PM)
Low41 °F (Sep 20, 2:00 AM)42% (Sep 18, 1:00 PM)29.32 "Hg (Sep 22, 7:00 AM)
Average59 °F73%30.07 "Hg
* Reported Sep 7 8:00 AM — Sep 22 8:00 AM, Pictou County, Weather by CustomWeather, © 2014

Note: Actual official high and low records may vary slightly from our data, if they occured in-between our weather recording intervals... More about our weather records

Advertising

Pictou County weather history for previous 24 hours

 ConditionsComfort  
Time TempWeatherWind HumidityBarometerVisibility
8:00 AM
Sep 22
70 °FMild.13 mph95%29.36 "HgN/A
7:00 AM70 °FMild.28 mph93%29.32 "HgN/A
6:00 AM70 °FMild.33 mph92%29.35 "HgN/A
5:00 AM69 °FMild.23 mph94%29.43 "HgN/A
4:00 AM69 °FMild.29 mph93%29.49 "HgN/A
3:00 AM68 °FMild.17 mph95%29.56 "HgN/A
2:00 AM68 °FMild.18 mph94%29.65 "HgN/A
1:00 AM68 °FMild.13 mph94%29.70 "HgN/A
12:00 AM65 °FMild.13 mph94%29.75 "HgN/A
11:00 PM
Sep 21
65 °FMild.13 mph92%29.82 "HgN/A
10:00 PM68 °FMild.17 mph88%29.86 "HgN/A
9:00 PM69 °FMild.15 mph87%29.89 "HgN/A
8:00 PM70 °FMild.13 mph80%29.91 "HgN/A
7:00 PM71 °FMild.12 mph78%29.92 "HgN/A
6:00 PM72 °FMild.9 mph69%29.94 "HgN/A
5:00 PM75 °FMild.15 mph55%29.93 "HgN/A
4:00 PM77 °FMild.17 mph49%29.94 "HgN/A
3:00 PM77 °FMild.15 mph53%29.96 "HgN/A
2:00 PM74 °FMild.9 mph54%29.98 "HgN/A
1:00 PM75 °FMild.9 mph53%30.01 "HgN/A
12:00 PM72 °FMild.13 mph55%30.01 "HgN/A
11:00 AM67 °FMild.13 mph62%30.03 "HgN/A
10:00 AM65 °FMild.12 mph67%30.04 "HgN/A
9:00 AM62 °FCool.10 mph75%30.05 "HgN/A
Weather by CustomWeather, © 2014

See weather overviewHow to use our weather pages